Edinburgh Airport, United Kingdom

11:27 PM GMT on November 24, 2017 (GMT +0000)
Edinburgh Airport

Weather History for EGPH - April, 2013

Change the Weather History Date:

Wednesday, April 17, 2013

  Actual Average Record
Temperature  
Mean Temperature 46 °F -  
Max Temperature 55 °F 55 °F 62 °F (2011)
Min Temperature 37 °F 40 °F 28 °F (2016)
Degree Days  
Heating Degree Days 19    
Moisture  
Dew Point 42 °F    
Average Humidity 83    
Maximum Humidity 100    
Minimum Humidity 71    
Precipitation  
Precipitation 0.00 in 0.06 in - ()
Sea Level Pressure  
Sea Level Pressure 29.53 in    
Wind  
Wind Speed 13 mph ()    
Max Wind Speed 31 mph    
Max Gust Speed 48 mph    
Visibility 5.7 miles    
Events Rain    
Averages and records for this station are not official NWS values.
T = Trace of Precipitation, MM = Missing Value Source: Averaged Metar Reports

Daily Weather History Graph

Daily Weather History Graph

Search for Another Location

Airport or City:

Trip Planner

Search our weather history database for the weather conditions in past years. The results will help you decide how hot, cold, wet, or windy it might be!

Date:

Astronomy

Apr. 17, 2013 Rise Set
Actual Time 6:02 AM BST 8:24 PM BST
Civil Twilight 5:22 AM BST 9:05 PM BST
Nautical Twilight 4:30 AM BST 9:57 PM BST
Astronomical Twilight 3:26 AM BST 11:02 PM BST
Moon 10:39 AM BST (4/17) 2:17 AM BST (4/17)
Length of Visible Light 15h 43m
Length of Day
14h 21m
Waxing Crescent, 40% of the Moon is Illuminated
Apr 17
Waxing Crescent
Apr 18
First Quarter
Apr 25
Full
May 2
Last Quarter
May 10
New

Hourly Weather History & Observations

Time (BST) Temp. Windchill Dew Point Humidity Pressure Visibility Wind Dir Wind Speed Gust Speed Precip Events Conditions
12:20 AM 44.6 °F 39.2 °F 35.6 °F 71% 29.80 in - WSW 10.4 mph - N/A   Clear
12:50 AM 42.8 °F 36.2 °F 35.6 °F 76% 29.80 in - WSW 12.7 mph - N/A   Clear
1:20 AM 42.8 °F 36.2 °F 35.6 °F 76% 29.80 in - WSW 12.7 mph - N/A   Clear
1:50 AM 41.0 °F 35.8 °F 35.6 °F 81% 29.83 in - WSW 8.1 mph - N/A   Clear
2:20 AM 41.0 °F 36.4 °F 35.6 °F 81% 29.83 in - SSW 6.9 mph - N/A   Clear
2:50 AM 41.0 °F 34.3 °F 35.6 °F 81% 29.83 in - SW 11.5 mph - N/A   Clear
3:20 AM 37.4 °F 31.4 °F 33.8 °F 87% 29.83 in 6.2 mi SW 8.1 mph - N/A   Unknown
3:50 AM 39.2 °F 33.6 °F 33.8 °F 81% 29.83 in 6.2 mi SW 8.1 mph - N/A   Unknown
4:20 AM 39.2 °F 34.2 °F 33.8 °F 81% 29.83 in - SW 6.9 mph - N/A   Clear
4:50 AM 42.8 °F 38.6 °F 37.4 °F 81% 29.83 in - South 6.9 mph - N/A   Clear
5:20 AM 42.8 °F 37.5 °F 35.6 °F 76% 29.80 in - South 9.2 mph - N/A   Clear
5:50 AM 41.0 °F - 35.6 °F 81% 29.80 in - Variable 2.3 mph - N/A   Clear
6:20 AM 39.2 °F - 35.6 °F 87% 29.80 in - Variable 2.3 mph - N/A   Clear
6:50 AM 42.8 °F 41.1 °F 37.4 °F 81% 29.77 in 6.2 mi Variable 3.5 mph - N/A   Unknown
7:20 AM 44.6 °F 43.1 °F 37.4 °F 76% 29.74 in 6.2 mi Variable 3.5 mph - N/A   Partly Cloudy
7:50 AM 44.6 °F 40.7 °F 39.2 °F 81% 29.77 in 4.3 mi South 6.9 mph - N/A Rain Light Rain
8:20 AM 44.6 °F 40.2 °F 41.0 °F 87% 29.71 in 6.2 mi ESE 8.1 mph - N/A Rain Light Rain
8:50 AM 44.6 °F 40.2 °F 41.0 °F 87% 29.71 in 5.0 mi East 8.1 mph - N/A Rain Rain
9:20 AM 42.8 °F 36.6 °F 41.0 °F 93% 29.68 in 3.7 mi ENE 11.5 mph - N/A Rain Light Rain
9:50 AM 42.8 °F 36.6 °F 41.0 °F 93% 29.65 in 3.7 mi East 11.5 mph - N/A Rain Light Rain
10:20 AM 42.8 °F 35.8 °F 42.8 °F 100% 29.62 in 5.0 mi East 13.8 mph - N/A Rain Light Rain
10:50 AM 44.6 °F 39.2 °F 42.8 °F 93% 29.59 in 6.2 mi ENE 10.4 mph - N/A   Mostly Cloudy
11:20 AM 44.6 °F 40.2 °F 42.8 °F 93% 29.56 in 4.3 mi ENE 8.1 mph - N/A   Overcast
11:50 AM 46.4 °F 43.5 °F 44.6 °F 93% 29.53 in 6.2 mi North 5.8 mph - N/A Rain Light Rain
12:20 PM 50.0 °F - 46.4 °F 87% 29.50 in 5.0 mi Variable 3.5 mph - N/A Rain Light Rain
12:50 PM 53.6 °F - 50.0 °F 88% 29.47 in 6.2 mi SW 16.1 mph - N/A   Mostly Cloudy
1:20 PM 55.4 °F - 50.0 °F 82% 29.47 in 6.2 mi SW 25.3 mph 40.3 mph N/A   Mostly Cloudy
1:50 PM 55.4 °F - 50.0 °F 82% 29.44 in 6.2 mi SW 26.5 mph 38.0 mph N/A   Mostly Cloudy
2:20 PM 55.4 °F - 50.0 °F 82% 29.42 in 6.2 mi SW 26.5 mph - N/A   Mostly Cloudy
2:50 PM 55.4 °F - 48.2 °F 77% 29.42 in 6.2 mi SW 29.9 mph 41.4 mph N/A Rain Light Rain
3:20 PM 53.6 °F - 48.2 °F 82% 29.39 in 6.2 mi SW 31.1 mph - N/A Rain Light Rain
3:50 PM 53.6 °F - 48.2 °F 82% 29.39 in 6.2 mi SSW 28.8 mph - N/A Rain Light Rain
4:20 PM 51.8 °F - 48.2 °F 88% 29.39 in 6.2 mi SSW 27.6 mph - N/A Rain Light Rain
4:50 PM 53.6 °F - 48.2 °F 82% 29.36 in 6.2 mi SSW 31.1 mph - N/A   Scattered Clouds
5:20 PM 53.6 °F - 48.2 °F 82% 29.36 in 6.2 mi SSW 25.3 mph 39.1 mph N/A   Mostly Cloudy
5:50 PM 53.6 °F - 48.2 °F 82% 29.33 in 6.2 mi SSW 28.8 mph 40.3 mph N/A   Mostly Cloudy
6:20 PM 53.6 °F - 48.2 °F 82% 29.30 in 6.2 mi SSW 27.6 mph 39.1 mph N/A   Mostly Cloudy
6:50 PM 53.6 °F - 46.4 °F 77% 29.27 in 6.2 mi SSW 26.5 mph - N/A   Scattered Clouds
7:20 PM 53.6 °F - 46.4 °F 77% 29.27 in 6.2 mi SSW 29.9 mph 48.3 mph N/A   Scattered Clouds
7:50 PM 53.6 °F - 46.4 °F 77% 29.24 in 6.2 mi SSW 25.3 mph 38.0 mph N/A   Mostly Cloudy
8:20 PM 51.8 °F - 44.6 °F 76% 29.21 in 6.2 mi SSW 26.5 mph 38.0 mph N/A   Scattered Clouds
8:50 PM 50.0 °F - 44.6 °F 82% 29.21 in 6.2 mi SSW 25.3 mph 39.1 mph N/A Rain Light Rain Showers
9:50 PM 48.2 °F - 44.6 °F 87% 29.18 in 5.0 mi SSW 26.5 mph 38.0 mph N/A Rain Light Rain Showers
10:20 PM 48.2 °F - 44.6 °F 87% 29.15 in 6.2 mi SSW 24.2 mph - N/A Rain Light Rain Showers
10:50 PM 48.2 °F - 44.6 °F 87% 29.15 in 5.0 mi SSW 25.3 mph - N/A Rain Light Rain
11:20 PM 48.2 °F - 42.8 °F 82% 29.12 in 5.0 mi SSW 25.3 mph - N/A Rain Light Rain
11:50 PM 48.2 °F - 42.8 °F 82% 29.12 in 4.3 mi SSW 23.0 mph 35.7 mph N/A Rain Light Rain